Погода в Кулиге

Россия / Курская область     51°15′57″N   36°17′55″E
темп.,
°C
ветер,
м/с
пор.,
м/с
влажн.,
%
обл.,
%
осадки,
мм/ч
давл.,
гПа
погр.,
м
18 августа, чт
чт1800:00+22всв614465 0.0 1011560
03:00+19св512510 0.0 1011345
06:00+19св613540 0.0 1010400
09:00+22всв71054100 0.4 1010592
12:00+27всв783597 0.4 10101292
15:00+29в683267 0.7 10091719
18:00+27ссв584536 0.1 1009668
21:00+19св5148479 3.3 1011335
19 августа, пт
пт1900:00+19всв614796 0.1 1012379
03:00+17всв613850 0.1 1012471
06:00+17всв714875 0.0 1013579
09:00+21всв810632 0.0 1013868
12:00+26в684628 0.0 10131551
15:00+24всв81055100 0.0 10131155
18:00+23в89516 0.0 10141163
21:00+17всв713801 0.0 1016555
20 августа, сб
сб2000:00+16всв613790 0.0 1015473
03:00+16св48755 0.0 1015173
06:00+17в4116921 0.0 1015316
09:00+21юв91354100 0.1 1017833
12:00+24вюв91140100 0.3 1017928
15:00+27вюв81034100 0.3 10161747
18:00+23в61239100 0.0 1017672
21:00+24в81429100 0.0 1017744
21 августа, вс
вс2100:00+23вюв61330100 0.1 1017539
03:00+23вюв81727100 0.3 1017831
06:00+22вюв71424100 0.0 1017499
09:00+21вюв61229100 0.0 1018580
12:00+26вюв81024100 0.0 10181027
15:00+28вюв81120100 0.0 10171618
18:00+27вюв7112387 0.0 10171172
21:00+23в61523100 0.0 1017419
22 августа, пн
пн2200:00+20в51423100 0.0 1017289
03:00+19в51322100 0.0 1017276
06:00+19в51226100 0.0 1017266
09:00+23вюв81433100 0.0 1017830
12:00+28вюв91327100 0.0 10171428
15:00+29вюв91225100 0.0 10171973
18:00+28в6102895 0.0 1017990
21:00+25в51431100 0.0 1017328